Location: Moscow
(55.7500°N, 37.5830°E)
Time: 05:40:55
(UTC+03:00)

Envisat - Pass Details

Date: 25 October 2021
Orbit: 764 x 766 km, 98.2° (Epoch: 28 November)

Event Time Altitude Azimuth Distance (km) Brightness Sun altitude
Rises 04:57:28 0° 20° (NNE) 3,247 6.6 -20.7°
Reaches altitude 10° 05:00:00 10° 30° (NNE) 2,316 6.0 -20.4°
Maximum altitude 05:04:37 33° 94° (E) 1,265 4.8 -19.7°
Drops below altitude 10° 05:09:11 10° 159° (SSE) 2,299 5.6 -19.1°
Sets 05:11:41 0° 168° (SSE) 3,220 6.3 -18.7°
